QPF
0.03 0.06 0.10 0.05 0.04 0.07 0.06 0.03 0.03 0.04 0.02 0.00 0.00 0.00 0.00 0.00 0.00 0.00 0.00 0.00 0.00 0.01 0.01 0.00 0.00 0.00 0.00 0.00 0.00 0.00 0.00 0.00 0.00 0.00 0.00 0.00 0.00 0.00 0.00 0.00 0.00 0.00 0.00 0.01
0.03 0.04 0.04 0.03 0.02 0.03 0.05 0.03 0.03 0.06 0.03 0.00 0.00 0.00 0.00 0.00 0.00 0.00 0.00 0.00 0.00 0.00 0.00 0.00 0.00 0.00 0.00 0.00 0.00 0.00 0.00 0.00 0.00 0.00 0.00 0.00 0.00 0.00 0.00 0.00 0.00 0.00 0.00 0.00
0.02 0.03 0.02 0.04 0.04 0.03 0.02 0.02 0.05 0.06 0.02 0.00 0.00 0.00 0.00 0.00 0.00 0.00 0.00 0.00 0.00 0.00 0.00 0.00 0.00 0.00 0.00 0.00 0.00 0.00 0.00 0.00 0.00 0.00 0.00 0.00 0.00 0.00 0.00 0.00 0.00 0.00 0.00 0.00
0.03 0.02 0.01 0.02 0.04 0.02 0.02 0.03 0.02 0.02 0.02 0.01 0.00 0.00 0.00 0.00 0.00 0.00 0.00 0.00 0.00 0.00 0.00 0.00 0.00 0.00 0.00 0.00 0.00 0.00 0.00 0.00 0.00 0.00 0.00 0.00 0.00 0.00 0.00 0.00 0.00 0.00 0.00 0.00
0.01 0.01 0.00 0.01 0.02 0.01 0.04 0.03 0.01 0.01 0.01 0.01 0.00 0.00 0.00 0.00 0.00 0.00 0.00 0.00 0.00 0.00 0.00 0.00 0.00 0.00 0.00 0.00 0.00 0.00 0.00 0.00 0.00 0.00 0.00 0.00 0.00 0.00 0.00 0.00 0.00 0.00 0.00 0.00
0.00 0.00 0.00 0.01 0.01 0.01 0.02 0.00 0.00 0.00 0.00 0.00 0.00 0.00 0.00 0.00 0.00 0.00 0.00 0.00 0.00 0.00 0.00 0.00 0.00 0.00 0.00 0.00 0.00 0.00 0.00 0.00 0.00 0.00 0.00 0.00 0.00 0.00 0.00 0.00 0.00 0.00 0.00 0.00
0.00 0.00 0.00 0.00 0.00 0.00 0.00 0.01 0.03 0.04 0.02 0.01 0.00 0.00 0.00 0.00 0.00 0.00 0.00 0.00 0.00 0.00 0.00 0.00 0.00 0.00 0.00 0.00 0.00 0.00 0.00 0.00 0.00 0.00 0.00 0.00 0.00 0.00 0.00 0.00 0.00 0.00 0.00 0.00
0.00 0.00 0.00 0.00 0.00 0.00 0.00 0.01 0.05 0.08 0.05 0.02 0.00 0.00 0.00 0.00 0.00 0.00 0.00 0.00 0.00 0.00 0.00 0.00 0.00 0.00 0.00 0.00 0.00 0.00 0.00 0.00 0.00 0.00 0.00 0.00 0.00 0.00 0.00 0.00 0.00 0.00 0.00 0.00
0.00 0.00 0.00 0.00 0.00 0.00 0.00 0.00 0.00 0.00 0.00 0.00 0.00 0.00 0.00 0.00 0.00 0.00 0.00 0.00 0.00 0.00 0.00 0.00 0.00 0.00 0.00 0.00 0.00 0.00 0.00 0.00 0.00 0.00 0.00 0.00 0.00 0.00 0.00 0.00 0.00 0.00 0.00 0.00
0.00 0.00 0.00 0.00 0.00 0.00 0.00 0.00 0.00 0.00 0.00 0.00 0.00 0.00 0.00 0.00 0.00 0.00 0.00 0.00 0.00 0.00 0.00 0.00 0.00 0.00 0.00 0.00 0.00 0.00 0.00 0.00 0.00 0.00 0.00 0.00 0.00 0.00 0.00 0.00 0.00 0.00 0.00 0.00
0.00 0.00 0.00 0.00 0.00 0.00 0.00 0.00 0.00 0.00 0.00 0.00 0.00 0.00 0.00 0.00 0.00 0.00 0.00 0.00 0.00 0.00 0.00 0.00 0.00 0.00 0.00 0.00 0.00 0.00 0.00 0.00 0.00 0.00 0.00 0.00 0.00 0.00 0.00 0.00 0.00 0.00 0.00 0.00
0.00 0.00 0.00 0.00 0.00 0.00 0.00 0.00 0.00 0.00 0.00 0.00 0.00 0.00 0.00 0.00 0.00 0.00 0.00 0.00 0.00 0.00 0.00 0.00 0.00 0.00 0.00 0.00 0.00 0.00 0.00 0.00 0.00 0.00 0.00 0.00 0.00 0.00 0.00 0.00 0.00 0.00 0.00 0.00
0.00 0.00 0.00 0.01 0.01 0.00 0.00 0.00 0.00 0.00 0.00 0.00 0.00 0.00 0.00 0.00 0.00 0.00 0.00 0.00 0.00 0.00 0.00 0.00 0.00 0.00 0.00 0.00 0.00 0.00 0.00 0.00 0.00 0.00 0.00 0.00 0.00 0.00 0.00 0.00 0.00 0.00 0.00 0.00
0.00 0.00 0.00 0.02 0.01 0.01 0.00 0.00 0.00 0.00 0.00 0.00 0.00 0.00 0.00 0.00 0.00 0.00 0.00 0.00 0.00 0.00 0.00 0.00 0.00 0.00 0.00 0.00 0.00 0.00 0.00 0.00 0.00 0.00 0.00 0.00 0.00 0.00 0.00 0.00 0.00 0.00 0.00 0.00
0.00 0.00 0.00 0.00 0.00 0.00 0.00 0.00 0.00 0.00 0.00 0.00 0.00 0.00 0.00 0.00 0.00 0.00 0.00 0.00 0.00 0.00 0.00 0.00 0.00 0.00 0.00 0.00 0.00 0.00 0.00 0.00 0.00 0.00 0.00 0.00 0.00 0.00 0.00 0.00 0.00 0.00 0.00 0.00
0.00 0.00 0.00 0.00 0.00 0.00 0.00 0.00 0.00 0.00 0.00 0.00 0.00 0.00 0.00 0.00 0.00 0.00 0.00 0.00 0.00 0.00 0.00 0.00 0.00 0.00 0.00 0.00 0.00 0.00 0.00 0.00 0.00 0.00 0.00 0.00 0.00 0.00 0.00 0.00 0.00 0.00 0.00 0.00
0.00 0.00 0.00 0.00 0.00 0.00 0.00 0.00 0.00 0.00 0.00 0.00 0.00 0.00 0.00 0.00 0.00 0.00 0.00 0.00 0.00 0.00 0.00 0.00 0.00 0.00 0.00 0.00 0.00 0.00 0.00 0.00 0.00 0.00 0.00 0.00 0.00 0.00 0.00 0.00 0.00 0.00 0.00 0.00
0.00 0.00 0.00 0.00 0.00 0.00 0.00 0.00 0.00 0.00 0.00 0.00 0.00 0.00 0.00 0.00 0.00 0.00 0.00 0.00 0.00 0.00 0.00 0.00 0.00 0.00 0.00 0.00 0.00 0.00 0.00 0.00 0.00 0.00 0.00 0.00 0.00 0.00 0.00 0.00 0.00 0.00 0.00 0.00
0.00 0.00 0.00 0.00 0.00 0.00 0.00 0.00 0.00 0.00 0.00 0.00 0.00 0.00 0.00 0.00 0.00 0.00 0.00 0.00 0.00 0.00 0.00 0.00 0.00 0.00 0.00 0.00 0.00 0.00 0.00 0.00 0.00 0.00 0.00 0.00 0.00 0.00 0.00 0.00 0.00 0.00 0.00 0.00
0.00 0.00 0.00 0.00 0.00 0.00 0.00 0.00 0.00 0.00 0.00 0.00 0.00 0.00 0.00 0.00 0.00 0.00 0.00 0.00 0.00 0.00 0.00 0.00 0.00 0.00 0.00 0.00 0.00 0.00 0.00 0.00 0.00 0.00 0.00 0.00 0.00 0.00 0.00 0.00 0.00 0.00 0.00 0.00
0.00 0.00 0.00 0.00 0.00 0.00 0.00 0.00 0.00 0.00 0.00 0.00 0.00 0.00 0.00 0.00 0.00 0.00 0.00 0.00 0.00 0.00 0.00 0.00 0.00 0.00 0.00 0.00 0.00 0.00 0.00 0.00 0.00 0.00 0.00 0.00 0.00 0.00 0.00 0.00 0.00 0.00 0.00 0.00
0.00 0.00 0.00 0.00 0.00 0.00 0.00 0.00 0.00 0.00 0.00 0.00 0.00 0.00 0.00 0.00 0.00 0.00 0.00 0.00 0.00 0.00 0.00 0.00 0.00 0.00 0.00 0.00 0.00 0.00 0.00 0.00 0.00 0.00 0.00 0.00 0.00 0.00 0.00 0.00 0.00 0.00 0.00 0.00
0.00 0.00 0.00 0.00 0.00 0.00 0.00 0.00 0.00 0.00 0.00 0.00 0.00 0.00 0.00 0.00 0.00 0.00 0.00 0.00 0.00 0.00 0.00 0.00 0.00 0.00 0.00 0.00 0.00 0.00 0.00 0.00 0.00 0.00 0.00 0.00 0.00 0.00 0.00 0.00 0.00 0.00 0.00 0.00
0.00 0.00 0.00 0.00 0.00 0.00 0.00 0.00 0.00 0.00 0.00 0.00 0.00 0.00 0.00 0.00 0.00 0.00 0.00 0.00 0.00 0.00 0.00 0.00 0.00 0.00 0.00 0.00 0.00 0.00 0.00 0.00 0.00 0.00 0.00 0.00 0.00 0.00 0.00 0.00 0.00 0.00 0.00 0.00
0.00 0.00 0.00 0.00 0.00 0.00 0.00 0.00 0.00 0.00 0.00 0.00 0.00 0.00 0.00 0.00 0.00 0.00 0.00 0.00 0.00 0.00 0.00 0.00 0.00 0.00 0.00 0.00 0.00 0.00 0.00 0.00 0.00 0.00 0.00 0.00 0.00 0.00 0.00 0.00 0.00 0.00 0.00 0.00
0.00 0.00 0.00 0.00 0.00 0.00 0.00 0.00 0.00 0.00 0.00 0.00 0.00 0.00 0.00 0.00 0.00 0.00 0.00 0.00 0.00 0.00 0.00 0.00 0.00 0.00 0.00 0.00 0.00 0.00 0.00 0.00 0.00 0.00 0.00 0.00 0.00 0.00 0.00 0.00 0.00 0.00 0.00 0.00
MSLP
1007.09 1007.73 1008.31 1008.81 1009.24 1009.59 1009.87 1010.07 1010.16 1010.12 1009.95 1009.62 1009.16 1008.59 1007.96 1007.35 1006.82 1006.42 1006.20 1006.16 1006.30 1006.58 1006.96 1007.40 1007.85 1008.28 1008.69 1009.07 1009.42 1009.76 1010.08 1010.40 1010.69 1010.95 1011.16 1011.31 1011.40 1011.41 1011.37 1011.29 1011.18 1011.05 1010.93 1010.80
1007.60 1008.12 1008.57 1008.95 1009.30 1009.61 1009.90 1010.14 1010.30 1010.33 1010.21 1009.90 1009.41 1008.77 1008.06 1007.34 1006.70 1006.23 1005.96 1005.91 1006.07 1006.39 1006.82 1007.31 1007.79 1008.24 1008.64 1009.01 1009.35 1009.68 1010.03 1010.38 1010.73 1011.05 1011.32 1011.51 1011.60 1011.61 1011.53 1011.40 1011.25 1011.10 1010.96 1010.84
1008.00 1008.37 1008.68 1008.95 1009.22 1009.50 1009.80 1010.10 1010.33 1010.44 1010.37 1010.09 1009.59 1008.91 1008.12 1007.31 1006.60 1006.05 1005.74 1005.67 1005.84 1006.20 1006.67 1007.19 1007.70 1008.16 1008.57 1008.92 1009.26 1009.60 1009.96 1010.34 1010.74 1011.11 1011.42 1011.65 1011.76 1011.76 1011.67 1011.51 1011.33 1011.16 1011.02 1010.92
1008.21 1008.44 1008.61 1008.77 1008.98 1009.26 1009.60 1009.97 1010.29 1010.49 1010.49 1010.25 1009.76 1009.05 1008.21 1007.32 1006.53 1005.91 1005.54 1005.45 1005.61 1005.98 1006.48 1007.03 1007.57 1008.05 1008.46 1008.82 1009.16 1009.50 1009.88 1010.29 1010.71 1011.12 1011.46 1011.72 1011.85 1011.86 1011.77 1011.61 1011.42 1011.25 1011.12 1011.04
1008.23 1008.30 1008.36 1008.46 1008.64 1008.95 1009.35 1009.82 1010.25 1010.55 1010.64 1010.46 1009.99 1009.26 1008.36 1007.41 1006.53 1005.83 1005.39 1005.25 1005.38 1005.75 1006.26 1006.83 1007.39 1007.90 1008.33 1008.71 1009.06 1009.41 1009.80 1010.21 1010.65 1011.07 1011.44 1011.71 1011.87 1011.90 1011.82 1011.67 1011.50 1011.34 1011.23 1011.18
1008.07 1008.03 1008.01 1008.08 1008.28 1008.65 1009.15 1009.72 1010.28 1010.69 1010.87 1010.75 1010.30 1009.56 1008.61 1007.58 1006.61 1005.82 1005.30 1005.08 1005.17 1005.50 1006.01 1006.60 1007.19 1007.73 1008.20 1008.61 1008.97 1009.33 1009.72 1010.13 1010.55 1010.97 1011.34 1011.62 1011.79 1011.84 1011.79 1011.68 1011.54 1011.41 1011.33 1011.30
1007.84 1007.73 1007.68 1007.76 1008.01 1008.45 1009.05 1009.74 1010.40 1010.92 1011.18 1011.11 1010.68 1009.93 1008.94 1007.84 1006.78 1005.89 1005.27 1004.97 1004.99 1005.28 1005.77 1006.37 1006.98 1007.56 1008.07 1008.51 1008.90 1009.27 1009.64 1010.03 1010.43 1010.82 1011.16 1011.44 1011.61 1011.69 1011.67 1011.60 1011.51 1011.42 1011.37 1011.37
1007.65 1007.52 1007.48 1007.60 1007.91 1008.42 1009.11 1009.88 1010.62 1011.21 1011.52 1011.48 1011.07 1010.30 1009.28 1008.13 1006.99 1006.01 1005.30 1004.91 1004.86 1005.10 1005.56 1006.15 1006.79 1007.41 1007.96 1008.44 1008.85 1009.22 1009.57 1009.93 1010.28 1010.62 1010.93 1011.18 1011.35 1011.44 1011.47 1011.44 1011.39 1011.36 1011.35 1011.38
1007.61 1007.50 1007.50 1007.66 1008.01 1008.58 1009.30 1010.10 1010.87 1011.47 1011.80 1011.77 1011.36 1010.59 1009.56 1008.38 1007.20 1006.16 1005.38 1004.92 1004.79 1004.97 1005.40 1005.98 1006.63 1007.27 1007.85 1008.36 1008.79 1009.16 1009.50 1009.81 1010.11 1010.40 1010.65 1010.87 1011.03 1011.13 1011.19 1011.20 1011.21 1011.22 1011.26 1011.32
1007.78 1007.72 1007.75 1007.95 1008.31 1008.86 1009.56 1010.32 1011.03 1011.60 1011.89 1011.85 1011.45 1010.70 1009.69 1008.53 1007.35 1006.30 1005.48 1004.97 1004.78 1004.91 1005.28 1005.84 1006.47 1007.12 1007.73 1008.26 1008.71 1009.08 1009.40 1009.67 1009.93 1010.16 1010.37 1010.54 1010.69 1010.80 1010.88 1010.94 1010.99 1011.05 1011.13 1011.22
1008.17 1008.16 1008.22 1008.41 1008.73 1009.20 1009.79 1010.43 1011.03 1011.49 1011.72 1011.65 1011.26 1010.56 1009.61 1008.52 1007.41 1006.39 1005.59 1005.05 1004.82 1004.89 1005.21 1005.71 1006.31 1006.94 1007.54 1008.08 1008.54 1008.92 1009.23 1009.49 1009.72 1009.91 1010.09 1010.24 1010.38 1010.49 1010.60 1010.69 1010.79 1010.89 1011.00 1011.12
1008.70 1008.73 1008.80 1008.93 1009.16 1009.49 1009.91 1010.37 1010.79 1011.12 1011.26 1011.16 1010.79 1010.17 1009.34 1008.37 1007.37 1006.45 1005.69 1005.16 1004.90 1004.90 1005.14 1005.56 1006.09 1006.68 1007.25 1007.79 1008.26 1008.66 1008.98 1009.25 1009.48 1009.67 1009.84 1009.99 1010.13 1010.26 1010.38 1010.50 1010.63 1010.77 1010.91 1011.06
1009.26 1009.31 1009.35 1009.41 1009.51 1009.66 1009.87 1010.11 1010.34 1010.51 1010.56 1010.44 1010.12 1009.61 1008.92 1008.12 1007.28 1006.48 1005.80 1005.29 1005.00 1004.92 1005.05 1005.36 1005.79 1006.29 1006.82 1007.34 1007.82 1008.25 1008.61 1008.93 1009.19 1009.42 1009.62 1009.79 1009.95 1010.10 1010.24 1010.39 1010.55 1010.71 1010.88 1011.05
1009.74 1009.78 1009.78 1009.74 1009.70 1009.67 1009.67 1009.70 1009.74 1009.77 1009.74 1009.62 1009.38 1008.99 1008.48 1007.87 1007.21 1006.54 1005.94 1005.45 1005.10 1004.93 1004.93 1005.09 1005.38 1005.78 1006.23 1006.72 1007.21 1007.67 1008.11 1008.50 1008.84 1009.14 1009.40 1009.62 1009.82 1010.00 1010.17 1010.34 1010.51 1010.69 1010.87 1011.05
1010.02 1010.06 1010.01 1009.89 1009.72 1009.54 1009.37 1009.23 1009.13 1009.05 1008.98 1008.88 1008.72 1008.48 1008.14 1007.71 1007.21 1006.67 1006.13 1005.64 1005.22 1004.92 1004.76 1004.75 1004.88 1005.13 1005.49 1005.94 1006.43 1006.95 1007.46 1007.95 1008.40 1008.81 1009.15 1009.45 1009.70 1009.92 1010.11 1010.29 1010.47 1010.65 1010.84 1011.03
1010.09 1010.11 1010.03 1009.86 1009.62 1009.34 1009.06 1008.82 1008.63 1008.50 1008.42 1008.36 1008.29 1008.18 1008.00 1007.72 1007.36 1006.90 1006.40 1005.86 1005.35 1004.91 1004.56 1004.35 1004.30 1004.40 1004.66 1005.04 1005.54 1006.10 1006.71 1007.31 1007.88 1008.39 1008.84 1009.22 1009.54 1009.79 1010.00 1010.19 1010.37 1010.54 1010.73 1010.92
1009.98 1009.99 1009.90 1009.71 1009.45 1009.15 1008.84 1008.56 1008.35 1008.22 1008.16 1008.15 1008.17 1008.17 1008.10 1007.94 1007.66 1007.25 1006.73 1006.14 1005.51 1004.90 1004.37 1003.96 1003.71 1003.66 1003.79 1004.12 1004.60 1005.20 1005.88 1006.58 1007.27 1007.90 1008.45 1008.91 1009.28 1009.57 1009.80 1009.98 1010.15 1010.31 1010.48 1010.67
1009.78 1009.77 1009.69 1009.53 1009.31 1009.04 1008.77 1008.53 1008.35 1008.25 1008.24 1008.29 1008.37 1008.43 1008.44 1008.33 1008.08 1007.68 1007.13 1006.45 1005.70 1004.93 1004.22 1003.62 1003.20 1002.99 1003.00 1003.25 1003.70 1004.32 1005.05 1005.83 1006.60 1007.32 1007.96 1008.49 1008.91 1009.23 1009.47 1009.65 1009.80 1009.95 1010.11 1010.29
1009.61 1009.58 1009.52 1009.41 1009.24 1009.05 1008.86 1008.69 1008.58 1008.55 1008.58 1008.68 1008.79 1008.89 1008.92 1008.82 1008.57 1008.14 1007.54 1006.78 1005.92 1005.03 1004.16 1003.41 1002.83 1002.48 1002.38 1002.54 1002.94 1003.54 1004.28 1005.10 1005.92 1006.70 1007.40 1007.98 1008.44 1008.79 1009.04 1009.22 1009.37 1009.51 1009.66 1009.84
1009.57 1009.51 1009.45 1009.38 1009.28 1009.18 1009.07 1009.00 1008.97 1008.99 1009.07 1009.19 1009.31 1009.41 1009.43 1009.31 1009.04 1008.58 1007.93 1007.12 1006.19 1005.21 1004.24 1003.37 1002.68 1002.21 1002.00 1002.06 1002.39 1002.93 1003.64 1004.44 1005.28 1006.08 1006.80 1007.42 1007.91 1008.29 1008.56 1008.76 1008.92 1009.07 1009.23 1009.42
1009.71 1009.59 1009.51 1009.45 1009.40 1009.37 1009.34 1009.34 1009.38 1009.44 1009.55 1009.67 1009.78 1009.86 1009.85 1009.71 1009.41 1008.94 1008.28 1007.45 1006.50 1005.48 1004.47 1003.54 1002.76 1002.20 1001.89 1001.84 1002.06 1002.51 1003.15 1003.90 1004.70 1005.49 1006.22 1006.86 1007.39 1007.80 1008.11 1008.35 1008.55 1008.73 1008.92 1009.12
1010.02 1009.81 1009.67 1009.59 1009.56 1009.56 1009.58 1009.63 1009.70 1009.80 1009.90 1010.01 1010.10 1010.15 1010.11 1009.96 1009.66 1009.20 1008.56 1007.77 1006.85 1005.86 1004.85 1003.90 1003.08 1002.44 1002.03 1001.87 1001.97 1002.29 1002.81 1003.47 1004.20 1004.96 1005.68 1006.34 1006.91 1007.38 1007.76 1008.07 1008.33 1008.57 1008.81 1009.05
1010.42 1010.09 1009.87 1009.75 1009.69 1009.69 1009.74 1009.80 1009.89 1009.99 1010.08 1010.17 1010.23 1010.25 1010.20 1010.05 1009.77 1009.36 1008.79 1008.07 1007.24 1006.32 1005.36 1004.43 1003.58 1002.89 1002.38 1002.10 1002.05 1002.22 1002.60 1003.13 1003.78 1004.48 1005.19 1005.87 1006.49 1007.04 1007.52 1007.93 1008.29 1008.62 1008.92 1009.21
1010.77 1010.34 1010.04 1009.85 1009.76 1009.74 1009.78 1009.85 1009.93 1010.02 1010.10 1010.16 1010.20 1010.20 1010.15 1010.02 1009.79 1009.45 1008.97 1008.37 1007.64 1006.82 1005.94 1005.04 1004.20 1003.45 1002.85 1002.43 1002.22 1002.24 1002.46 1002.86 1003.40 1004.04 1004.73 1005.44 1006.13 1006.78 1007.37 1007.91 1008.39 1008.82 1009.21 1009.57
1010.97 1010.46 1010.09 1009.86 1009.74 1009.71 1009.74 1009.81 1009.89 1009.96 1010.02 1010.06 1010.08 1010.07 1010.03 1009.93 1009.76 1009.50 1009.13 1008.64 1008.04 1007.32 1006.52 1005.67 1004.82 1004.02 1003.33 1002.78 1002.42 1002.26 1002.32 1002.58 1003.02 1003.60 1004.28 1005.02 1005.78 1006.54 1007.26 1007.93 1008.54 1009.09 1009.57 1010.00
1010.91 1010.38 1010.00 1009.77 1009.66 1009.64 1009.68 1009.76 1009.84 1009.91 1009.95 1009.98 1009.98 1009.96 1009.92 1009.84 1009.72 1009.54 1009.26 1008.88 1008.37 1007.75 1007.02 1006.21 1005.36 1004.51 1003.73 1003.06 1002.55 1002.24 1002.14 1002.27 1002.61 1003.12 1003.79 1004.55 1005.38 1006.24 1007.07 1007.87 1008.61 1009.27 1009.85 1010.35
Thickness
5731 5724 5719 5729 5738 5740 5738 5736 5737 5745 5759 5760 5759 5763 5773 5780 5778 5776 5775 5774 5773 5772 5775 5774 5770 5764 5758 5753 5749 5747 5742 5738 5734 5728 5724 5719 5715 5712 5709 5704 5699 5696 5692 5690
5722 5721 5736 5745 5745 5743 5737 5736 5739 5746 5758 5761 5762 5766 5778 5783 5780 5781 5779 5777 5776 5774 5773 5769 5766 5762 5756 5751 5748 5747 5743 5738 5733 5726 5724 5720 5715 5712 5708 5704 5700 5695 5691 5688
5721 5734 5749 5745 5740 5741 5742 5739 5738 5737 5750 5764 5762 5759 5772 5784 5788 5786 5785 5783 5783 5778 5772 5768 5765 5760 5755 5750 5747 5746 5742 5737 5732 5728 5724 5719 5715 5710 5706 5702 5698 5695 5691 5688
5729 5745 5747 5742 5739 5742 5735 5749 5750 5748 5744 5743 5754 5736 5763 5777 5776 5778 5778 5779 5779 5780 5776 5769 5765 5758 5755 5752 5750 5747 5742 5737 5732 5727 5720 5715 5709 5705 5704 5701 5698 5696 5692 5689
5729 5741 5743 5740 5744 5749 5744 5756 5754 5753 5746 5743 5754 5744 5757 5772 5764 5770 5776 5777 5778 5779 5776 5770 5765 5760 5757 5754 5749 5745 5741 5735 5730 5726 5720 5715 5710 5707 5706 5703 5699 5696 5694 5690
5744 5757 5756 5752 5758 5760 5758 5755 5756 5756 5747 5730 5749 5743 5746 5764 5766 5771 5776 5778 5777 5777 5775 5770 5766 5761 5755 5752 5747 5743 5738 5733 5729 5725 5721 5716 5711 5708 5705 5701 5698 5696 5694 5691
5739 5750 5759 5762 5751 5755 5754 5738 5723 5720 5718 5721 5752 5749 5752 5772 5778 5777 5775 5777 5777 5776 5772 5766 5761 5756 5752 5748 5744 5741 5736 5731 5728 5724 5721 5718 5714 5711 5706 5702 5699 5696 5693 5690
5732 5732 5753 5759 5753 5749 5750 5744 5717 5698 5699 5717 5744 5746 5760 5779 5781 5781 5779 5778 5777 5773 5771 5766 5761 5756 5751 5747 5744 5740 5736 5731 5728 5725 5722 5720 5716 5711 5708 5705 5702 5699 5695 5693
5738 5736 5760 5765 5767 5759 5747 5746 5752 5733 5728 5725 5740 5755 5767 5776 5773 5773 5773 5773 5771 5770 5768 5765 5761 5756 5752 5747 5743 5741 5736 5733 5730 5726 5723 5721 5718 5714 5710 5707 5704 5701 5699 5696
5752 5737 5751 5760 5761 5760 5756 5751 5742 5729 5712 5707 5725 5740 5741 5752 5759 5764 5765 5765 5767 5768 5766 5764 5760 5756 5753 5749 5745 5742 5739 5735 5732 5729 5725 5722 5719 5716 5711 5708 5704 5702 5700 5697
5759 5741 5741 5748 5743 5745 5747 5744 5741 5735 5731 5712 5705 5726 5760 5758 5761 5761 5764 5767 5767 5766 5764 5762 5759 5757 5754 5750 5745 5742 5739 5736 5733 5730 5727 5723 5719 5716 5713 5709 5706 5703 5701 5699
5758 5746 5734 5744 5761 5765 5755 5748 5741 5721 5720 5724 5713 5727 5768 5766 5766 5766 5766 5768 5769 5767 5765 5762 5759 5756 5752 5749 5745 5742 5740 5737 5734 5731 5728 5724 5721 5717 5714 5711 5708 5705 5703 5701
5748 5739 5722 5720 5730 5744 5743 5746 5745 5738 5727 5719 5709 5726 5765 5766 5765 5766 5766 5766 5767 5766 5764 5761 5757 5754 5751 5748 5746 5743 5741 5738 5735 5732 5728 5725 5722 5718 5715 5713 5710 5707 5704 5701
5746 5736 5727 5713 5721 5733 5734 5739 5742 5733 5716 5715 5721 5732 5752 5758 5758 5762 5765 5766 5766 5765 5763 5759 5755 5753 5751 5749 5747 5745 5742 5740 5736 5732 5728 5725 5723 5720 5718 5716 5712 5709 5706 5702
5747 5732 5736 5741 5746 5744 5740 5739 5740 5734 5731 5721 5728 5734 5744 5751 5755 5760 5764 5765 5763 5763 5761 5758 5755 5753 5751 5749 5747 5747 5743 5741 5738 5732 5728 5726 5725 5723 5719 5716 5713 5710 5707 5704
5743 5730 5730 5731 5741 5743 5739 5744 5743 5740 5739 5735 5734 5735 5751 5756 5757 5756 5758 5758 5758 5759 5760 5759 5757 5754 5752 5750 5747 5747 5744 5741 5738 5733 5729 5727 5725 5722 5719 5716 5713 5709 5706 5704
5729 5724 5716 5715 5730 5730 5723 5742 5744 5742 5742 5735 5724 5730 5743 5743 5745 5747 5749 5751 5753 5756 5758 5758 5757 5756 5755 5753 5751 5747 5746 5743 5738 5733 5730 5727 5725 5721 5719 5716 5712 5709 5706 5703
5725 5719 5714 5710 5712 5698 5732 5758 5752 5740 5737 5737 5733 5734 5736 5737 5743 5746 5745 5745 5748 5752 5755 5756 5758 5757 5757 5757 5754 5750 5747 5743 5738 5734 5731 5728 5724 5721 5718 5715 5711 5709 5706 5703
5738 5721 5709 5703 5697 5708 5732 5743 5743 5733 5722 5729 5726 5726 5729 5736 5738 5736 5741 5743 5745 5749 5753 5756 5758 5759 5758 5757 5755 5751 5746 5742 5737 5733 5731 5728 5725 5720 5717 5713 5711 5709 5706 5703
5737 5727 5709 5701 5690 5689 5713 5732 5743 5732 5707 5717 5718 5715 5716 5719 5708 5713 5730 5736 5740 5744 5749 5753 5756 5757 5755 5755 5754 5749 5744 5740 5736 5734 5731 5729 5725 5720 5716 5713 5711 5709 5706 5703
5711 5707 5699 5694 5689 5701 5712 5724 5728 5697 5686 5705 5707 5704 5703 5700 5701 5710 5721 5725 5730 5736 5741 5746 5748 5749 5750 5752 5750 5745 5742 5739 5738 5735 5731 5727 5724 5720 5715 5712 5709 5707 5704 5701
5700 5694 5693 5693 5684 5686 5705 5707 5693 5687 5697 5696 5694 5693 5692 5694 5698 5703 5708 5713 5719 5724 5730 5735 5737 5739 5743 5746 5743 5740 5738 5739 5736 5731 5726 5722 5719 5717 5714 5708 5705 5703 5700 5696
5700 5699 5693 5691 5690 5698 5699 5693 5691 5690 5685 5684 5682 5682 5683 5683 5686 5690 5695 5700 5706 5712 5718 5723 5725 5728 5733 5737 5737 5732 5733 5734 5731 5725 5720 5717 5714 5711 5708 5704 5699 5697 5695 5691
5691 5696 5686 5683 5691 5694 5690 5686 5683 5679 5675 5674 5672 5672 5672 5671 5674 5677 5682 5687 5692 5698 5704 5709 5713 5716 5720 5725 5727 5727 5728 5727 5723 5718 5714 5711 5707 5704 5701 5698 5695 5691 5689 5686
5670 5671 5666 5665 5674 5677 5676 5669 5667 5665 5663 5661 5660 5659 5658 5659 5661 5664 5668 5673 5677 5683 5689 5695 5700 5703 5709 5714 5717 5719 5720 5719 5715 5711 5708 5705 5701 5698 5694 5689 5685 5683 5679 5679
5660 5656 5651 5651 5659 5653 5653 5655 5652 5647 5645 5645 5644 5644 5645 5646 5647 5651 5654 5658 5663 5668 5675 5680 5686 5692 5698 5703 5707 5711 5713 5711 5708 5704 5702 5699 5695 5692 5686 5679 5671 5669 5669 5669